Probability
2 3 5 5 5 8 9 7 5 3 3 2 1 0 0 0 0 0 0 0 0 1 2 1 0 0 0 0 0 0 0 0 0 0 0 0 0 0 0 0 0 0 0
3 3 4 5 6 8 9 8 6 3 2 1 1 0 0 0 0 0 0 0 0 1 2 2 2 1 1 1 0 0 0 1 1 1 1 1 1 1 1 1 1 1 1
3 3 3 5 7 8 10 10 7 4 2 1 0 0 0 0 0 0 0 0 0 0 1 3 5 5 3 2 0 0 0 1 2 3 3 3 2 2 2 2 2 2 2
5 3 3 4 6 9 11 11 8 5 2 1 0 0 0 0 0 0 0 0 0 0 0 2 5 6 4 2 0 0 0 1 2 2 3 3 3 3 3 3 3 3 3
5 4 3 4 6 9 11 11 8 5 3 1 0 0 0 0 0 0 0 0 0 0 0 1 2 2 2 1 0 0 1 2 3 3 3 4 4 3 3 2 1 1 2
4 4 4 4 6 9 10 9 7 4 2 1 0 0 0 0 0 0 0 0 0 0 0 0 0 0 0 0 0 0 1 3 5 5 5 6 5 4 3 1 0 0 1
2 3 4 5 7 9 9 8 7 4 1 0 0 0 0 0 0 0 0 0 0 0 0 0 0 0 0 0 0 0 2 3 4 5 7 7 6 4 2 1 0 0 0
1 2 4 5 8 10 9 8 7 4 1 0 0 0 0 0 0 0 0 0 0 0 0 0 0 0 0 0 0 0 1 2 2 3 5 6 5 2 1 0 0 0 0
1 2 3 5 8 10 9 7 6 4 1 0 0 0 0 0 0 0 0 0 0 0 0 0 0 0 0 0 0 0 0 1 1 1 2 4 4 1 0 0 0 0 0
0 1 3 5 7 8 7 6 5 4 1 0 0 0 0 0 0 0 0 0 0 0 0 0 0 0 0 0 0 0 0 0 0 0 1 2 2 1 0 0 0 0 0
0 0 2 4 5 4 4 5 5 3 1 0 0 0 0 0 0 0 0 0 0 0 0 0 0 0 0 0 0 0 0 0 0 0 0 1 1 1 0 0 0 1 1
1 1 1 2 3 2 2 3 4 4 2 1 0 0 0 0 0 0 0 0 0 0 0 0 0 0 0 0 0 0 0 0 0 0 0 0 1 0 0 1 2 3 3
2 2 1 0 1 1 1 3 4 4 3 1 0 0 0 0 0 0 0 0 0 0 0 0 0 0 0 0 0 0 0 0 0 0 0 0 0 0 0 2 3 4 4
1 2 1 0 0 0 1 3 5 4 3 2 1 0 0 0 0 0 0 0 0 0 0 0 0 0 0 0 0 0 0 0 0 0 0 0 0 0 0 1 1 2 3
0 1 1 0 0 0 1 3 4 3 3 3 2 0 0 0 0 0 0 0 0 0 0 0 0 0 0 0 0 0 0 0 0 0 0 0 0 0 0 0 0 0 1
0 0 0 0 0 0 1 2 2 1 1 2 1 0 0 0 0 0 0 0 0 0 0 0 0 0 0 0 0 0 0 0 0 0 0 0 0 0 0 0 0 0 0
0 0 0 0 0 0 0 0 0 0 0 0 0 0 0 0 0 0 0 0 0 0 0 0 0 0 0 0 0 0 0 0 0 0 0 0 0 0 0 0 0 0 0
0 0 0 0 0 0 0 0 0 0 0 0 0 0 0 0 0 0 0 0 0 0 0 0 0 0 0 0 0 0 0 0 0 0 0 0 0 0 0 0 0 0 0
0 0 0 0 0 0 0 0 0 0 0 0 0 0 0 0 0 0 0 0 0 0 0 0 0 0 0 0 0 0 0 0 0 0 0 0 0 0 0 0 0 0 0
0 0 0 0 0 0 0 0 0 0 0 0 0 0 0 0 0 0 0 0 0 0 0 0 0 0 0 0 0 0 0 0 0 0 0 0 0 0 0 0 0 0 0
0 0 0 0 0 0 0 0 0 0 0 0 0 0 0 0 0 0 0 0 0 0 0 0 0 0 0 0 0 0 0 0 0 0 0 0 0 0 0 0 0 0 0
0 0 0 0 0 0 0 0 0 0 0 0 0 0 0 0 0 0 0 0 0 0 0 0 0 0 0 0 0 0 0 0 0 0 0 0 0 0 0 0 0 0 0
0 0 0 0 0 0 0 0 0 0 0 0 0 0 0 0 0 0 0 0 0 0 0 0 0 0 0 0 0 0 0 0 0 0 0 0 0 0 0 0 0 0 0
0 0 0 0 0 0 0 0 0 0 0 0 0 0 0 0 0 0 0 0 0 0 0 0 0 0 0 0 0 0 0 0 0 0 0 0 0 0 0 0 0 0 0
0 0 0 0 0 0 0 0 0 0 0 0 0 0 0 0 0 0 0 0 0 0 0 0 0 0 0 0 0 0 0 0 0 0 0 0 0 0 0 0 0 0 0
0 0 0 0 0 0 0 0 0 0 0 0 0 0 0 0 0 0 0 0 0 0 0 0 0 0 0 0 0 0 0 0 0 0 0 0 0 0 0 0 0 0 0
Wind_Speed
3 4 3 4 4 4 4 4 4 5 6 6 6 6 6 6 5 4 4 9 11 11 12 12 12 11 10 10 9 8 7 6 6 6 6 5 5 5 5 6 7 7 7
4 4 4 4 4 5 5 5 6 5 5 5 6 6 6 6 6 6 5 7 11 11 12 13 12 11 11 10 10 9 8 7 7 7 7 6 6 6 7 7 8 8 8
4 4 4 4 4 5 6 5 5 4 4 5 6 6 6 6 6 6 6 5 6 9 11 12 12 12 11 11 10 10 9 8 8 8 8 8 8 8 8 8 9 9 9
5 4 4 4 4 4 5 5 5 5 4 4 5 5 5 5 7 6 5 5 5 5 8 10 10 11 11 11 11 10 10 9 8 8 9 9 9 9 9 10 10 10 10
4 4 4 4 4 4 4 5 5 5 4 4 5 5 5 5 6 6 6 6 6 5 5 7 9 9 9 10 11 10 10 9 9 9 9 10 10 11 11 11 11 11 11
4 3 3 4 4 4 4 4 5 4 4 4 4 4 5 5 5 5 6 6 5 6 5 5 5 6 8 8 10 11 11 10 10 10 10 10 11 11 12 12 11 12 12
3 3 3 3 4 4 5 5 5 5 4 3 2 2 3 4 5 5 5 4 5 5 5 5 4 4 4 8 9 10 11 11 11 11 11 11 12 12 13 13 12 12 12
3 3 3 3 4 4 4 4 4 3 3 3 3 2 1 2 3 4 4 5 5 4 5 5 5 5 4 4 5 8 9 11 12 12 12 12 13 13 14 14 13 13 13
3 2 3 3 4 4 4 5 5 6 4 3 4 4 3 3 1 2 4 4 4 4 4 4 5 5 5 4 4 6 7 9 12 13 13 13 13 14 14 14 14 14 13
2 2 2 2 3 4 4 5 5 4 5 4 3 3 3 2 2 2 2 3 4 5 5 4 5 5 5 4 4 4 6 8 11 14 14 14 14 14 14 15 15 14 14
2 2 2 2 3 3 3 4 4 4 4 4 4 3 2 2 2 2 3 2 2 3 4 4 4 4 4 3 3 4 6 8 11 13 15 15 14 14 14 15 14 14 14
2 2 2 2 2 3 3 3 4 4 4 4 3 3 3 3 3 2 4 4 4 3 3 3 3 3 3 3 4 5 6 8 10 12 14 14 14 14 14 15 14 14 14
2 2 2 2 2 3 3 3 3 3 3 4 4 3 3 3 2 2 3 3 4 3 2 3 3 3 2 3 4 6 7 8 10 12 14 15 13 13 13 14 14 14 14
2 3 3 3 2 3 3 3 2 2 2 3 4 4 3 3 2 2 3 3 4 3 3 4 2 3 3 3 5 6 6 9 10 12 14 14 12 11 12 13 14 14 14
2 3 3 2 2 2 3 3 2 3 3 3 3 4 3 3 2 2 2 3 4 5 6 3 2 3 3 3 5 4 5 8 10 11 12 12 12 11 12 13 13 13 14
2 3 2 2 2 2 2 2 2 3 2 2 2 3 2 1 1 1 2 2 3 4 6 3 3 3 3 4 5 5 6 9 10 11 11 11 11 12 12 12 13 13 13
2 2 2 2 2 2 2 2 2 2 2 2 2 3 3 2 2 2 2 3 3 3 5 4 3 3 4 4 4 4 5 6 6 10 11 11 11 11 11 12 13 13 12
2 2 1 1 1 1 1 1 2 2 2 3 3 3 3 2 2 2 2 3 3 3 4 6 4 3 5 5 5 5 5 5 6 9 11 11 11 11 11 11 12 12 13
2 2 1 1 1 1 1 1 2 2 2 3 3 3 3 3 3 3 3 3 3 3 3 4 5 4 4 4 4 5 5 5 6 7 9 10 10 11 11 11 11 12 12
2 2 2 2 1 1 2 1 1 1 1 1 2 3 3 4 4 4 3 3 3 3 3 3 4 4 4 3 3 4 5 4 5 5 7 7 10 11 12 12 11 11 12
3 3 2 2 2 1 1 1 1 1 1 1 1 2 2 3 3 3 3 2 3 3 3 3 4 4 4 3 3 3 5 5 5 4 5 5 5 6 6 9 10 11 11
3 3 3 2 2 2 3 3 1 0 0 1 1 2 2 2 2 3 4 4 4 4 4 4 4 5 5 5 4 4 4 5 6 2 4 6 4 6 5 5 9 10 11
3 3 3 3 3 3 4 4 3 1 1 1 2 2 2 2 3 3 3 5 5 7 7 6 6 6 6 6 5 5 5 6 7 4 4 7 5 6 5 7 10 10 11
3 3 3 3 3 4 4 3 4 2 1 2 3 3 3 4 4 3 3 3 4 5 6 5 6 6 6 5 6 6 7 7 6 4 4 6 5 5 6 5 9 10 10
3 3 3 3 3 3 4 4 4 1 1 2 3 3 3 4 5 4 3 3 5 5 5 6 7 7 7 7 7 4 4 4 6 5 3 4 4 4 5 5 6 9 10
3 3 4 4 3 3 5 5 5 1 1 2 2 3 4 5 5 4 3 4 5 5 4 5 5 5 5 5 6 5 5 5 5 5 3 3 4 3 4 4 4 4 6
Wind_Direction
223 219 215 208 207 201 197 199 203 203 202 203 205 206 213 212 209 205 212 216 216 215 213 212 213 215 217 219 221 217 219 227 237 242 246 251 260 267 276 284 285 285 283
223 221 218 213 211 206 201 199 202 206 210 208 212 212 214 215 213 210 210 214 217 214 214 215 217 218 220 221 222 221 223 229 235 238 244 250 258 266 273 279 284 287 285
223 223 220 216 215 210 203 199 202 204 214 216 218 217 215 218 216 215 213 210 211 216 216 216 218 219 222 224 225 225 228 231 235 241 246 252 257 263 269 274 278 280 280
226 217 223 223 217 211 204 203 201 203 212 218 220 222 219 217 217 215 211 209 208 210 215 215 217 219 221 224 229 231 235 238 240 244 248 252 256 261 266 270 274 275 275
236 220 225 227 215 210 209 210 205 201 208 218 224 222 219 215 215 212 210 208 208 207 206 211 215 220 221 225 232 237 241 243 244 247 250 254 257 260 264 267 271 272 273
248 233 233 234 219 211 212 209 207 205 207 211 226 230 226 220 215 210 210 207 206 206 207 210 212 219 219 227 234 239 245 248 248 250 253 254 257 261 263 266 267 268 269
258 240 243 237 226 217 215 212 204 204 210 196 196 246 248 229 219 211 206 201 205 208 205 210 210 211 222 229 237 245 248 251 254 254 255 256 257 260 262 265 266 267 267
266 253 243 237 232 225 218 217 207 203 210 191 177 175 245 252 231 220 209 204 207 207 213 218 214 212 219 222 235 243 252 258 261 261 260 260 260 262 264 264 265 266 267
272 264 257 243 239 227 218 214 212 201 208 208 189 179 188 219 236 235 217 211 208 208 216 216 215 216 219 223 235 241 253 261 264 265 264 264 264 263 264 264 265 266 267
291 281 271 259 250 240 227 219 219 215 199 209 212 207 208 188 189 230 234 217 216 219 218 221 219 218 217 219 233 257 260 264 266 268 268 268 267 268 268 268 267 267 266
305 293 275 262 256 250 237 223 220 225 213 209 210 207 216 220 208 204 236 234 244 230 222 217 217 217 218 224 233 269 278 273 271 272 272 271 270 270 271 272 272 270 269
290 287 269 256 258 255 246 232 220 221 222 213 212 206 201 194 202 209 223 229 239 242 237 219 213 211 217 232 252 277 274 272 274 274 274 276 276 275 273 273 272 273 274
281 286 278 259 257 252 247 239 226 223 230 219 215 217 215 219 204 216 221 232 244 252 234 224 210 213 232 241 250 268 266 271 273 273 274 275 279 279 277 274 273 274 275
284 284 272 262 262 261 256 241 222 222 236 236 230 218 218 224 211 213 217 221 243 253 241 233 212 214 234 243 261 266 260 271 271 271 272 276 279 280 280 278 275 274 274
289 286 277 275 269 258 252 250 231 224 227 234 232 224 223 225 210 216 226 220 222 243 246 235 233 228 246 251 270 257 262 271 273 272 272 276 278 278 277 276 277 277 276
293 288 290 283 277 268 253 245 251 236 219 239 230 218 220 221 205 216 224 240 239 242 256 251 244 252 250 269 276 261 261 281 272 273 276 277 276 276 275 277 276 276 276
319 308 297 291 288 289 283 255 257 246 227 238 234 215 215 203 201 223 226 231 239 239 256 268 265 266 256 260 267 259 265 260 262 272 276 277 277 277 276 276 277 276 277
324 316 319 324 318 295 271 258 274 270 247 241 237 220 222 215 213 222 224 234 241 243 249 267 274 265 256 251 250 260 271 275 264 271 271 275 278 278 277 277 278 277 275
342 342 338 319 298 291 287 259 254 268 255 237 229 221 222 214 225 233 232 236 245 257 253 254 267 268 263 257 260 266 268 267 274 271 269 271 277 280 278 277 278 278 277
341 339 341 332 319 301 290 274 244 244 254 253 237 232 232 226 225 225 230 232 239 251 258 263 271 270 263 256 249 261 274 266 269 275 274 277 278 277 276 277 278 276 275
352 352 357 351 342 323 308 307 235 221 225 264 270 252 246 253 258 254 256 246 240 244 254 259 270 279 273 266 262 265 275 284 271 258 267 270 268 262 262 270 275 274 273
358 5 0 347 348 343 355 356 360 115 245 252 279 291 274 249 271 285 285 284 276 255 251 254 261 267 278 278 276 276 280 284 277 241 265 272 259 262 264 258 275 281 276
356 354 345 345 347 343 347 354 355 344 313 270 259 261 274 272 267 248 272 288 283 279 268 258 260 262 267 270 271 273 269 270 271 270 265 266 257 259 264 270 277 279 279
348 343 340 340 337 334 345 350 350 344 311 285 276 261 253 261 261 266 257 272 271 272 271 259 251 257 261 266 260 259 268 276 276 262 240 260 264 265 273 266 271 277 278
355 351 346 347 338 330 338 341 347 313 294 287 279 277 268 259 278 291 271 270 279 277 281 281 281 282 283 282 283 273 270 275 279 270 234 253 267 278 273 262 267 273 275
350 348 348 342 334 325 335 342 339 303 295 295 292 286 282 281 287 293 262 255 265 276 282 286 286 291 277 267 273 257 250 256 273 271 238 245 264 285 284 263 258 260 263